"Period start","avg(HW err(1)/warn(2) (#))","avg(Visibility (m))","avg(Weather code (#))","avg(Precip intensity (mm/h))","min(HW err(1)/warn(2) (#))","max(HW err(1)/warn(2) (#))","std(HW err(1)/warn(2) (#))","med(HW err(1)/warn(2) (#))","min(Visibility (m))","max(Visibility (m))","std(Visibility (m))","med(Visibility (m))","min(Weather code (#))","max(Weather code (#))","std(Weather code (#))","med(Weather code (#))","min(Precip intensity (mm/h))","max(Precip intensity (mm/h))","std(Precip intensity (mm/h))","med(Precip intensity (mm/h))"
2014-08-21 00:00:00,2,50000,0,0.00,2,2,0,2,50000,50000,0,50000,0,0,0,0,0.00,0.00,0.00,0.00
2014-08-21 00:10:00,0,50000,0,0.00,0,2,1,0,50000,50000,0,50000,0,0,0,0,0.00,0.00,0.00,0.00
2014-08-21 00:20:00,0,50000,0,0.00,0,0,0,0,50000,50000,0,50000,0,0,0,0,0.00,0.00,0.00,0.00
2014-08-21 00:30:00,0,49811,0,0.00,0,0,0,0,48110,50000,567,50000,0,0,0,0,0.00,0.00,0.00,0.00
2014-08-21 00:40:00,0,50000,0,0.00,0,0,0,0,50000,50000,0,50000,0,0,0,0,0.00,0.00,0.00,0.00
2014-08-21 00:50:00,1,50000,0,0.00,0,2,1,0,50000,50000,0,50000,0,0,0,0,0.00,0.00,0.00,0.00
2014-08-21 01:00:00,2,50000,0,0.00,0,2,1,2,50000,50000,0,50000,0,0,0,0,0.00,0.00,0.00,0.00
2014-08-21 01:10:00,2,46116,0,0.00,2,2,0,2,39427,50000,3150,45353,0,0,0,0,0.00,0.00,0.00,0.00
2014-08-21 01:20:00,2,49826,35,0.39,2,2,0,2,48256,50000,523,50000,0,61,24,41,0.00,2.90,0.84,0.12
2014-08-21 01:30:00,2,49031,61,0.36,2,2,0,2,43475,50000,1942,50000,61,61,0,61,0.00,1.75,0.51,0.17
2014-08-21 01:40:00,2,49944,47,0.06,2,2,0,2,49443,50000,167,50000,0,61,16,51,0.00,0.25,0.09,0.00
2014-08-21 01:50:00,2,47170,0,0.00,2,2,0,2,38902,50000,3484,48726,0,0,0,0,0.00,0.00,0.00,0.00
2014-08-21 02:00:00,2,46718,12,0.11,2,2,0,2,30842,50000,5631,49540,0,61,24,0,0.00,0.80,0.25,0.00
2014-08-21 02:10:00,2,36042,59,1.28,2,2,0,2,23981,44060,6603,37222,52,61,4,61,0.35,2.95,0.68,1.20
2014-08-21 02:20:00,2,44590,61,1.28,2,2,0,2,33266,50000,5100,45872,61,61,0,61,0.00,2.90,0.83,1.25
2014-08-21 02:30:00,2,49820,12,0.01,2,2,0,2,48618,50000,420,50000,0,61,24,0,0.00,0.05,0.02,0.00
2014-08-21 02:40:00,2,49904,0,0.00,2,2,0,2,49044,50000,287,50000,0,0,0,0,0.00,0.00,0.00,0.00
2014-08-21 02:50:00,2,45237,0,0.00,2,2,0,2,37985,50000,4917,46734,0,0,0,0,0.00,0.00,0.00,0.00
2014-08-21 03:00:00,2,50000,0,0.00,2,2,0,2,50000,50000,0,50000,0,0,0,0,0.00,0.00,0.00,0.00
2014-08-21 03:10:00,2,50000,0,0.00,2,2,0,2,50000,50000,0,50000,0,0,0,0,0.00,0.00,0.00,0.00
2014-08-21 03:20:00,2,49850,0,0.00,2,2,0,2,48505,50000,448,50000,0,0,0,0,0.00,0.00,0.00,0.00
2014-08-21 03:30:00,2,47554,0,0.00,2,2,0,2,43475,50000,2898,49704,0,0,0,0,0.00,0.00,0.00,0.00
2014-08-21 03:40:00,2,44063,0,0.00,2,2,0,2,27737,50000,8220,47620,0,0,0,0,0.00,0.00,0.00,0.00
2014-08-21 03:50:00,2,49636,0,0.00,2,2,0,2,48416,50000,562,50000,0,0,0,0,0.00,0.00,0.00,0.00
2014-08-21 04:00:00,2,29870,0,0.00,2,2,0,2,7332,50000,17129,31239,0,0,0,0,0.00,0.00,0.00,0.00
2014-08-21 04:10:00,2,43584,0,0.00,2,2,0,2,32917,50000,5400,45558,0,0,0,0,0.00,0.00,0.00,0.00
2014-08-21 04:20:00,2,43610,0,0.00,2,2,0,2,6928,50000,12927,49808,0,0,0,0,0.00,0.00,0.00,0.00
2014-08-21 04:30:00,2,23404,0,0.00,2,2,0,2,10121,50000,12842,18550,0,0,0,0,0.00,0.00,0.00,0.00
2014-08-21 04:40:00,2,46525,0,0.00,2,2,0,2,39993,50000,3766,48140,0,0,0,0,0.00,0.00,0.00,0.00
2014-08-21 04:50:00,2,36016,0,0.00,2,2,0,2,11072,50000,14040,41278,0,0,0,0,0.00,0.00,0.00,0.00
2014-08-21 05:00:00,2,41150,0,0.00,2,2,0,2,19761,50000,8905,43870,0,0,0,0,0.00,0.00,0.00,0.00
2014-08-21 05:10:00,2,28767,0,0.00,2,2,0,2,10214,50000,12477,26172,0,0,0,0,0.00,0.00,0.00,0.00
2014-08-21 05:20:00,2,35139,0,0.00,2,2,0,2,9461,50000,14894,39082,0,0,0,0,0.00,0.00,0.00,0.00
2014-08-21 05:30:00,2,31800,0,0.00,2,2,0,2,10335,50000,13433,33781,0,0,0,0,0.00,0.00,0.00,0.00
2014-08-21 05:40:00,2,25013,0,0.00,2,2,0,2,10225,45862,10618,23870,0,0,0,0,0.00,0.00,0.00,0.00
2014-08-21 05:50:00,2,45698,0,0.00,2,2,0,2,36944,50000,4621,47698,0,0,0,0,0.00,0.00,0.00,0.00
2014-08-21 06:00:00,2,18566,0,0.00,2,2,0,2,4133,49682,12985,16220,0,0,0,0,0.00,0.00,0.00,0.00
2014-08-21 06:10:00,2,10735,39,0.59,2,2,0,2,4903,35751,9303,6765,0,61,24,52,0.00,3.00,0.91,0.07
2014-08-21 06:20:00,2,26143,6,0.02,2,2,0,2,4604,50000,15342,24294,0,61,18,0,0.00,0.20,0.06,0.00
2014-08-21 06:30:00,2,19200,33,0.20,2,2,0,2,4764,43503,14206,13204,0,61,27,51,0.00,0.90,0.27,0.05
2014-08-21 06:40:00,2,41773,11,0.01,2,2,0,2,10347,50000,13593,49295,0,61,23,0,0.00,0.05,0.02,0.00
2014-08-21 06:50:00,2,23490,0,0.00,2,2,0,2,5283,48944,16679,19461,0,0,0,0,0.00,0.00,0.00,0.00
2014-08-21 07:00:00,2,27949,0,0.00,2,2,0,2,9619,50000,15776,25400,0,0,0,0,0.00,0.00,0.00,0.00
2014-08-21 07:10:00,2,43402,0,0.00,2,2,0,2,25391,50000,7270,44573,0,0,0,0,0.00,0.00,0.00,0.00
2014-08-21 07:20:00,2,29153,0,0.00,2,2,0,2,12388,43654,10529,31324,0,0,0,0,0.00,0.00,0.00,0.00
2014-08-21 07:30:00,2,45761,0,0.00,2,2,0,2,37934,50000,4504,47878,0,0,0,0,0.00,0.00,0.00,0.00
2014-08-21 07:40:00,2,43547,0,0.00,2,2,0,2,37796,50000,4010,42866,0,0,0,0,0.00,0.00,0.00,0.00
2014-08-21 07:50:00,2,40262,0,0.00,2,2,0,2,32898,48873,4569,39982,0,0,0,0,0.00,0.00,0.00,0.00
2014-08-21 08:00:00,2,45355,0,0.00,2,2,0,2,40111,50000,3471,45190,0,0,0,0,0.00,0.00,0.00,0.00
2014-08-21 08:10:00,2,43829,0,0.00,0,2,1,2,39259,50000,3436,43102,0,0,0,0,0.00,0.00,0.00,0.00
2014-08-21 08:20:00,2,40781,0,0.00,0,2,1,2,34134,45171,3269,41502,0,0,0,0,0.00,0.00,0.00,0.00
2014-08-21 08:30:00,2,35023,0,0.00,2,2,0,2,20687,41658,7023,39002,0,0,0,0,0.00,0.00,0.00,0.00
2014-08-21 08:40:00,2,36629,0,0.00,2,2,0,2,26528,50000,6324,35479,0,0,0,0,0.00,0.00,0.00,0.00
2014-08-21 08:50:00,2,44632,0,0.00,2,2,0,2,40299,47329,1849,44435,0,0,0,0,0.00,0.00,0.00,0.00
2014-08-21 09:00:00,2,42947,0,0.00,2,2,0,2,38625,50000,3638,41841,0,0,0,0,0.00,0.00,0.00,0.00
2014-08-21 09:10:00,2,44760,0,0.00,2,2,0,2,40382,50000,2840,45491,0,0,0,0,0.00,0.00,0.00,0.00
2014-08-21 09:20:00,2,16640,33,0.42,2,2,0,2,4876,38933,14229,7414,0,61,27,52,0.00,1.50,0.49,0.28
2014-08-21 09:30:00,2,10510,35,0.92,2,2,0,2,3189,20647,6919,7678,10,52,21,52,0.00,2.30,0.94,0.68
2014-08-21 09:40:00,2,36220,5,0.00,2,2,0,2,28741,43525,4826,35650,0,10,5,5,0.00,0.00,0.00,0.00
2014-08-21 09:50:00,2,43926,0,0.00,2,2,0,2,34297,50000,4639,44504,0,0,0,0,0.00,0.00,0.00,0.00
2014-08-21 10:00:00,2,48045,0,0.00,2,2,0,2,44050,50000,2159,49056,0,0,0,0,0.00,0.00,0.00,0.00
2014-08-21 10:10:00,2,47397,0,0.00,2,2,0,2,40105,50000,3390,48643,0,0,0,0,0.00,0.00,0.00,0.00
2014-08-21 10:20:00,2,34882,0,0.00,2,2,0,2,28053,42328,5698,34638,0,0,0,0,0.00,0.00,0.00,0.00
2014-08-21 10:30:00,2,36407,0,0.00,2,2,0,2,26691,43189,5334,35515,0,0,0,0,0.00,0.00,0.00,0.00
2014-08-21 10:40:00,2,36747,0,0.00,2,2,0,2,31044,43676,3577,37075,0,0,0,0,0.00,0.00,0.00,0.00
2014-08-21 10:50:00,2,31655,0,0.00,2,2,0,2,27274,38238,3391,30388,0,0,0,0,0.00,0.00,0.00,0.00
2014-08-21 11:00:00,2,38631,0,0.00,2,2,0,2,33743,45008,3421,37513,0,0,0,0,0.00,0.00,0.00,0.00
2014-08-21 11:10:00,2,40753,0,0.00,2,2,0,2,31603,47952,5111,40326,0,0,0,0,0.00,0.00,0.00,0.00
2014-08-21 11:20:00,2,33343,0,0.00,2,2,0,2,29091,39208,2425,33000,0,0,0,0,0.00,0.00,0.00,0.00
2014-08-21 11:30:00,2,36303,0,0.00,2,2,0,2,30101,42118,4154,36760,0,0,0,0,0.00,0.00,0.00,0.00
2014-08-21 11:40:00,2,34589,0,0.00,2,2,0,2,29543,39344,2854,34217,0,0,0,0,0.00,0.00,0.00,0.00
2014-08-21 11:50:00,2,35580,0,0.00,2,2,0,2,28140,40317,3486,36228,0,0,0,0,0.00,0.00,0.00,0.00
2014-08-21 12:00:00,2,34758,0,0.00,2,2,0,2,29176,40069,3445,35244,0,0,0,0,0.00,0.00,0.00,0.00
2014-08-21 12:10:00,2,32695,0,0.00,2,2,0,2,30289,35720,1420,32404,0,0,0,0,0.00,0.00,0.00,0.00
2014-08-21 12:20:00,2,33630,0,0.00,2,2,0,2,27545,38001,3183,33572,0,0,0,0,0.00,0.00,0.00,0.00
2014-08-21 12:30:00,2,34000,0,0.00,2,2,0,2,29853,38565,3057,34395,0,0,0,0,0.00,0.00,0.00,0.00
2014-08-21 12:40:00,2,32343,0,0.00,2,2,0,2,29137,35875,2020,31975,0,0,0,0,0.00,0.00,0.00,0.00
2014-08-21 12:50:00,2,33421,0,0.00,2,2,0,2,30222,37320,2062,33036,0,0,0,0,0.00,0.00,0.00,0.00
2014-08-21 13:00:00,2,32936,0,0.00,2,2,0,2,24488,38539,4276,33526,0,0,0,0,0.00,0.00,0.00,0.00
2014-08-21 13:10:00,2,34728,0,0.00,2,2,0,2,30167,39651,2625,34414,0,0,0,0,0.00,0.00,0.00,0.00
2014-08-21 13:20:00,2,35736,0,0.00,2,2,0,2,32840,40343,2708,35004,0,0,0,0,0.00,0.00,0.00,0.00
2014-08-21 13:30:00,2,34987,0,0.00,2,2,0,2,30498,39605,3090,34333,0,0,0,0,0.00,0.00,0.00,0.00
2014-08-21 13:40:00,2,38754,0,0.00,2,2,0,2,33132,42466,3330,39268,0,0,0,0,0.00,0.00,0.00,0.00
2014-08-21 13:50:00,2,38503,0,0.00,2,2,0,2,34356,42933,2760,38230,0,0,0,0,0.00,0.00,0.00,0.00
2014-08-21 14:00:00,2,39065,0,0.00,2,2,0,2,32678,45521,3898,38833,0,0,0,0,0.00,0.00,0.00,0.00
2014-08-21 14:10:00,2,39963,0,0.00,2,2,0,2,35350,46505,3505,40262,0,0,0,0,0.00,0.00,0.00,0.00
2014-08-21 14:20:00,2,38638,0,0.00,2,2,0,2,33811,41997,2527,39124,0,0,0,0,0.00,0.00,0.00,0.00
2014-08-21 14:30:00,2,45805,0,0.00,2,2,0,2,41001,50000,2832,46582,0,0,0,0,0.00,0.00,0.00,0.00
2014-08-21 14:40:00,2,44975,0,0.00,2,2,0,2,39795,50000,3266,45058,0,0,0,0,0.00,0.00,0.00,0.00
2014-08-21 14:50:00,2,40208,0,0.00,2,2,0,2,35353,42756,2191,40410,0,0,0,0,0.00,0.00,0.00,0.00
2014-08-21 15:00:00,2,40876,0,0.00,2,2,0,2,32718,47544,4971,40828,0,0,0,0,0.00,0.00,0.00,0.00
2014-08-21 15:10:00,2,44791,0,0.00,2,2,0,2,42277,48374,1898,44103,0,0,0,0,0.00,0.00,0.00,0.00
2014-08-21 15:20:00,2,38454,0,0.00,2,2,0,2,33936,46163,3657,37500,0,0,0,0,0.00,0.00,0.00,0.00
2014-08-21 15:30:00,2,39314,0,0.00,2,2,0,2,34227,42610,2881,40262,0,0,0,0,0.00,0.00,0.00,0.00
2014-08-21 15:40:00,2,42536,0,0.00,2,2,0,2,35497,48627,4089,41868,0,0,0,0,0.00,0.00,0.00,0.00
2014-08-21 15:50:00,2,43189,0,0.00,2,2,0,2,38020,48633,3058,42766,0,0,0,0,0.00,0.00,0.00,0.00
2014-08-21 16:00:00,2,39136,0,0.00,2,2,0,2,33835,47779,4390,39077,0,0,0,0,0.00,0.00,0.00,0.00
2014-08-21 16:10:00,2,44157,0,0.00,2,2,0,2,35443,49240,5009,45392,0,0,0,0,0.00,0.00,0.00,0.00
2014-08-21 16:20:00,2,39507,0,0.00,2,2,0,2,33245,44873,3517,39562,0,0,0,0,0.00,0.00,0.00,0.00
2014-08-21 16:30:00,2,44813,0,0.00,0,2,1,2,38954,49427,3230,44907,0,0,0,0,0.00,0.00,0.00,0.00
2014-08-21 16:40:00,1,41898,0,0.00,0,2,1,2,38169,49762,3525,41382,0,0,0,0,0.00,0.00,0.00,0.00
2014-08-21 16:50:00,0,40362,0,0.00,0,0,0,0,36617,45046,2721,40366,0,0,0,0,0.00,0.00,0.00,0.00
2014-08-21 17:00:00,0,40805,0,0.00,0,0,0,0,35913,47078,3629,40112,0,0,0,0,0.00,0.00,0.00,0.00
2014-08-21 17:10:00,0,39289,0,0.00,0,0,0,0,30960,48776,5580,39112,0,0,0,0,0.00,0.00,0.00,0.00
2014-08-21 17:20:00,0,38718,0,0.00,0,0,0,0,34212,42209,2727,38235,0,0,0,0,0.00,0.00,0.00,0.00
2014-08-21 17:30:00,2,38732,0,0.00,2,2,0,2,33560,42931,2499,39008,0,0,0,0,0.00,0.00,0.00,0.00
2014-08-21 17:40:00,2,39200,0,0.00,2,2,0,2,34235,45421,3283,39158,0,0,0,0,0.00,0.00,0.00,0.00
2014-08-21 17:50:00,2,38764,0,0.00,2,2,0,2,33271,46732,3476,37810,0,0,0,0,0.00,0.00,0.00,0.00
2014-08-21 18:00:00,2,42632,0,0.00,0,2,1,2,39095,46483,2365,42634,0,0,0,0,0.00,0.00,0.00,0.00
2014-08-21 18:10:00,0,40342,0,0.00,0,2,1,0,36022,43767,2637,41090,0,0,0,0,0.00,0.00,0.00,0.00
2014-08-21 18:20:00,0,41104,0,0.00,0,0,0,0,36605,44769,2251,40872,0,0,0,0,0.00,0.00,0.00,0.00
2014-08-21 18:30:00,0,38112,0,0.00,0,0,0,0,34178,43485,3178,37237,0,0,0,0,0.00,0.00,0.00,0.00
2014-08-21 18:40:00,0,37436,0,0.00,0,0,0,0,33330,45236,3526,36428,0,0,0,0,0.00,0.00,0.00,0.00
2014-08-21 18:50:00,0,34406,0,0.00,0,0,0,0,18102,41822,7092,35956,0,0,0,0,0.00,0.00,0.00,0.00
2014-08-21 19:00:00,0,39472,0,0.00,0,0,0,0,34487,43195,2741,39378,0,0,0,0,0.00,0.00,0.00,0.00
2014-08-21 19:10:00,0,38185,0,0.00,0,0,0,0,30174,44970,4568,38298,0,0,0,0,0.00,0.00,0.00,0.00
2014-08-21 19:20:00,0,40535,0,0.00,0,0,0,0,33466,47340,4215,41624,0,0,0,0,0.00,0.00,0.00,0.00
2014-08-21 19:30:00,1,45343,0,0.00,0,2,1,2,39226,48967,3021,45774,0,0,0,0,0.00,0.00,0.00,0.00
2014-08-21 19:40:00,2,41729,0,0.00,2,2,0,2,35146,47084,4614,42726,0,0,0,0,0.00,0.00,0.00,0.00
2014-08-21 19:50:00,2,37326,0,0.00,2,2,0,2,27664,45350,4205,38037,0,0,0,0,0.00,0.00,0.00,0.00
2014-08-21 20:00:00,2,44444,0,0.00,0,2,1,2,37765,49694,4139,44715,0,0,0,0,0.00,0.00,0.00,0.00
2014-08-21 20:10:00,0,42153,0,0.00,0,2,1,0,34687,47168,3557,43102,0,0,0,0,0.00,0.00,0.00,0.00
2014-08-21 20:20:00,0,42934,0,0.00,0,0,0,0,34738,49759,4949,43381,0,0,0,0,0.00,0.00,0.00,0.00
2014-08-21 20:30:00,0,43500,0,0.00,0,0,0,0,37075,49378,4004,42008,0,0,0,0,0.00,0.00,0.00,0.00
2014-08-21 20:40:00,0,46390,0,0.00,0,0,0,0,43230,49277,2034,46116,0,0,0,0,0.00,0.00,0.00,0.00
2014-08-21 20:50:00,0,41831,0,0.00,0,0,0,0,33362,46410,4214,43704,0,0,0,0,0.00,0.00,0.00,0.00
2014-08-21 21:00:00,1,40680,0,0.00,0,2,1,1,34868,47449,3633,41530,0,0,0,0,0.00,0.00,0.00,0.00
2014-08-21 21:10:00,2,38844,0,0.00,2,2,0,2,34372,44494,2845,38594,0,0,0,0,0.00,0.00,0.00,0.00
2014-08-21 21:20:00,1,43559,0,0.00,0,2,1,1,33806,49877,5090,44386,0,0,0,0,0.00,0.00,0.00,0.00
2014-08-21 21:30:00,0,41309,0,0.00,0,0,0,0,34274,45264,3416,42610,0,0,0,0,0.00,0.00,0.00,0.00
2014-08-21 21:40:00,1,44112,0,0.00,0,2,1,2,38928,50000,3232,43817,0,0,0,0,0.00,0.00,0.00,0.00
2014-08-21 21:50:00,1,43345,0,0.00,0,2,1,1,31606,50000,5668,45101,0,0,0,0,0.00,0.00,0.00,0.00
2014-08-21 22:00:00,0,41196,0,0.00,0,0,0,0,33307,50000,5982,40006,0,0,0,0,0.00,0.00,0.00,0.00
2014-08-21 22:10:00,0,39291,0,0.00,0,0,0,0,32139,47522,4490,38788,0,0,0,0,0.00,0.00,0.00,0.00
2014-08-21 22:20:00,0,37435,0,0.00,0,0,0,0,30436,43295,4597,37581,0,0,0,0,0.00,0.00,0.00,0.00
2014-08-21 22:30:00,0,38501,0,0.00,0,0,0,0,18158,45536,8583,42259,0,0,0,0,0.00,0.00,0.00,0.00
2014-08-21 22:40:00,0,44902,0,0.00,0,0,0,0,41197,49306,2677,43798,0,0,0,0,0.00,0.00,0.00,0.00
2014-08-21 22:50:00,0,47049,0,0.00,0,0,0,0,43430,50000,2467,47209,0,0,0,0,0.00,0.00,0.00,0.00
2014-08-21 23:00:00,0,48410,0,0.00,0,0,0,0,44511,50000,1935,49251,0,0,0,0,0.00,0.00,0.00,0.00
2014-08-21 23:10:00,0,47208,0,0.00,0,0,0,0,41829,50000,3341,49332,0,0,0,0,0.00,0.00,0.00,0.00
2014-08-21 23:20:00,0,45518,0,0.00,0,0,0,0,33699,50000,6021,50000,0,0,0,0,0.00,0.00,0.00,0.00
2014-08-21 23:30:00,0,46237,0,0.00,0,0,0,0,38273,50000,3935,47920,0,0,0,0,0.00,0.00,0.00,0.00
2014-08-21 23:40:00,0,42060,42,0.62,0,0,0,0,35638,50000,4497,41112,0,61,27,61,0.00,1.70,0.55,0.57
2014-08-21 23:50:00,0,44651,36,0.15,0,0,0,0,36561,50000,4133,45784,0,51,23,51,0.00,0.50,0.17,0.10
